Regional Weather Roundup
Issued by NWS

Home | Current Version | Previous Version | Text Only | Print | Product List | Glossary Off
Versions: 1 2 3 4 5 6 7 8 9 10 11 12 13 14 15 16 17 18 19 20 21 22 23 24 25 26 27 28 29 30 31 32 33 34 35 36 37 38 39 40 41 42 43 44 45 46 47 48 49 50

000
ASUS44 KMEG 231210
RWRTN
TENNESSEE HOURLY STATE WEATHER ROUNDUP
NATIONAL WEATHER SERVICE MEMPHIS TN
700 AM CDT WED JUL 23 2014

TNZ002-004-019-021-049-052-054-088>092-231300-
WEST TENNESSEE

CITY           SKY/WX    TMP DP  RH WIND       PRES   REMARKS
MEMPHIS INTL   MOSUNNY   76  70  82 CALM      30.06S
NWS MEMPHIS      N/A     72 N/A N/A MISG        N/A
JACKSON        FOG       73  72  94 CALM      30.06S VSB 3/4
DYERSBURG      SUNNY     72  63  73 S3        30.05F
UNION CITY     SUNNY     72  72 100 CALM      30.03F
PARIS          SUNNY     71  68  90 CALM      30.06F
LEXINGTON      PTSUNNY   72  72 100 CALM      30.06S
SAVANNAH       SUNNY     70  70 100 CALM      30.08R
$$

TNZ008-025-027-028-033-062-065-066-231300-
NORTH MIDDLE TENNESSEE

CITY           SKY/WX    TMP DP  RH WIND       PRES   REMARKS
NASHVILLE      MOSUNNY   74  73  97 S3        30.08R
DICKSON        SUNNY     73  72  94 SW3       30.08R
PORTLAND       SUNNY     72  72 100 S5        30.07S
CLARKSVILLE    SUNNY     73  71  93 CALM      30.06S FOG
LEBANON        SUNNY     75  71  87 S5        30.07S
SMYRNA         SUNNY     75  75 100 CALM      30.09S
COOKEVILLE     MOSUNNY   73  72  94 CALM      30.11S
GALLATIN       SUNNY     72  72 100 CALM      30.09R
CROSSVILLE     PTSUNNY   69  66  90 CALM      30.16R
$$

TNZ061-075-076-078-094-096-097-231300-
SOUTH MIDDLE TENNESSEE

CITY           SKY/WX    TMP DP  RH WIND       PRES   REMARKS
LEWISBURG      MOSUNNY   72  70  93 CALM      30.09S
FAYETTEVILLE   SUNNY     70  70 100 S8G24     30.11S
TULLAHOMA      SUNNY     72  70  94 CALM      30.13S
WINCHESTER     SUNNY     72  70  94 CALM      30.12S
MCMINNVILLE    SUNNY     72  72 100 SE3       30.12S
COLUMBIA       SUNNY     73  72  94 CALM      30.08R
SHELBYVILLE    SUNNY     72  72 100 CALM      30.11S
$$

TNZ017-018-042-046-047-231300-
NORTHEAST TENNESSEE

CITY           SKY/WX    TMP DP  RH WIND       PRES   REMARKS
TRI CITIES     CLOUDY    70  66  87 CALM      30.16R
ELIZABETHTON   CLOUDY    66  64  94 NE3       30.17R
$$

TNZ012-013-036-069-073-074-231300-
CENTRAL EAST TENNESSEE

CITY           SKY/WX    TMP DP  RH WIND       PRES   REMARKS
KNOXVILLE      PTSUNNY   73  70  90 SW7       30.11R
OAK RIDGE      LGT RAIN  76  72  87 VRB3      30.13R
GATLINBURG     CLOUDY    72  70  94 CALM      30.12R
MORRISTOWN     MOSUNNY   72  72 100 VRB3      30.15R
$$

TNZ083-085-099-231300-
SOUTHEAST TENNESSEE

CITY           SKY/WX    TMP DP  RH WIND       PRES   REMARKS
CHATTANOOGA    MOSUNNY   73  69  87 CALM      30.12R FOG
$$

SKY/WX REPORTED AS FAIR MEANS FEW OR NO CLOUDS BELOW
12 THOUSAND FEET.



USA.gov is the U.S. government's official web portal to all federal, state and local government web resources and services.